Torna al catalogo

STARLINK-33720

AttivoComunicazioniVLEO
NORAD 63468·PAYLOAD·🇺🇸 United States

Lanciato Apr 6, 2025 da Cape Canaveral Space Force Station

Loading…

Prossimi Passaggi (prossime 24 ore)

TLE

AggiornatoSource: CelesTrak SupGP

Epoca: Sep 14, 2026, 22:51 UTC

1 63468C 25070J   26257.95256944  .00034833  00000+0  12621-2 0  2578
2 63468  43.0019 271.0064 0001484 264.9503   0.9006 15.27549041    16

Traccia STARLINK-33720 in tempo reale con AllMySat

Download on the App Store